Location: New Greens
(51.7702°N, 0.3379°W)
Time: 15:50:05
(UTC+00:00)

Envisat - Pass Details

Date: 30 January 2019
Orbit: 764 x 766 km, 98.1° (Epoch: 21 October)

Event Time Altitude Azimuth Distance (km) Brightness Sun altitude
Rises 18:30:32 0° 163° (SSE) 3,223 6.1 -16.1°
Reaches altitude 10° 18:32:49 10° 164° (SSE) 2,301 5.4 -16.5°
Maximum altitude 18:37:54 89° 247° (WSW) 774 3.0 -17.3°
Drops below altitude 10° 18:43:02 10° 345° (NNW) 2,317 5.6 -18.1°
Sets 18:45:21 0° 346° (NNW) 3,247 6.4 -18.4°
